[[{"header":{"parameterUnit":"m.s-1","parameterCategory":1,"la1":30.2991,"la2":30.254,"lo1":-89.0895,"lo2":-89.0444,"dy":0.0017,"dx":0.0017,"nx":28,"ny":28,"refTime":"2023-10-08T09:00:00:Z","depth":0,"parameterNumber":2,"parameterNumberName":"U-component_of_WINDS"},"data":[0,0,0,0,0,0,0,0,0,0,0,0,0,0,0,0,0,0,0,0,0,0,0,0,0,0,0,0,0,0,0,0,0,0,0,0,0,0,0,0,0,0,0,0,0,0,0,0,0,0,0,0,0,0,0,0,0,0,-0.654,-0.6541,0,-0.6657,-0.6658,-0.666,-0.6711,-0.6711,-0.6711,-0.6711,-0.6831,-0.6834,-0.6838,0,0,0,0,0,0,0,0,0,0,0,0,0,-0.6362,-0.6365,-0.654,-0.6541,-0.6543,-0.6657,-0.6658,-0.666,-0.6711,-0.6711,-0.6711,-0.671,-0.683,-0.6834,-0.6838,0,0,0,0,0,0,0,0,0,0,0,0,0,-0.6455,-0.6366,-0.654,-0.6582,-0.6587,-0.6657,-0.6659,-0.6661,-0.6711,-0.6711,-0.6711,-0.671,-0.6829,-0.6834,-0.6839,-0.6875,0,0,-0.6854,-0.6856,0,0,0,0,0,0,0,0,-0.645,-0.6461,-0.6574,-0.6579,-0.6585,-0.6669,-0.664,-0.6732,-0.6711,-0.6664,-0.6711,-0.671,-0.6778,-0.6787,-0.6809,-0.6881,-0.6886,-0.6855,-0.6858,-0.686,-0.6861,0,0,0,0,0,0,0,-0.6443,-0.6457,-0.6586,-0.6576,-0.6582,-0.6596,-0.6609,-0.6658,-0.6721,-0.6668,-0.6672,-0.6685,-0.678,-0.6804,-0.6813,-0.6888,-0.6854,-0.6859,-0.6862,-0.6864,-0.6996,-0.6996,0,0,0,0,0,0,-0.643,-0.6451,-0.6583,-0.659,-0.6515,-0.6599,-0.6614,-0.6642,-0.672,-0.6732,-0.6685,-0.6687,-0.6796,-0.6807,-0.6817,-0.6865,-0.686,-0.6865,-0.6867,-0.6995,-0.6996,-0.6997,0,0,0,0,0,0,-0.6426,-0.6441,-0.6578,-0.6522,-0.654,-0.6602,-0.6634,-0.6645,-0.6669,-0.6733,-0.6745,-0.6698,-0.6796,-0.681,-0.686,-0.687,-0.6867,-0.6871,-0.6995,-0.6996,-0.6996,-0.6962,0,0,0,0,0,0,-0.642,-0.6439,-0.6453,-0.6522,-0.6543,-0.6619,-0.6635,-0.6647,-0.6677,-0.6681,-0.6749,-0.6759,-0.6797,-0.6853,-0.6865,-0.6877,-0.6875,-0.6994,-0.6995,-0.6996,-0.6962,-0.6961,-0.696,0,0,0,0,0,-0.6414,-0.6439,-0.6454,-0.6469,-0.6562,-0.6619,-0.6632,-0.6674,-0.6678,-0.6693,-0.6735,-0.6757,-0.6867,-0.6857,-0.6872,-0.6886,-0.6994,-0.6995,-0.6996,-0.6963,-0.6962,-0.696,0,0,0,0,0,0,-0.637,-0.6449,-0.6466,-0.6514,-0.6559,-0.6628,-0.6648,-0.6671,-0.6717,-0.6718,-0.6769,-0.6784,-0.683,-0.6863,-0.6851,-0.6926,-0.6933,-0.6937,-0.6902,-0.6901,-0.69,-0.6892,-0.688,0,0,0,0,0,-0.6366,-0.6406,-0.6472,-0.6508,-0.653,-0.6585,-0.6612,-0.664,-0.669,-0.671,-0.6755,-0.6802,-0.6848,-0.6876,-0.6922,-0.6967,-0.6983,-0.6984,-0.6983,-0.6982,-0.6985,-0.7012,-0.7014,-0.7,-0.7,-0.7,0,0,-0.6358,-0.6406,-0.6428,-0.6501,-0.654,-0.658,-0.6601,-0.6643,-0.6674,-0.6716,-0.6767,-0.6801,-0.6858,-0.6906,-0.693,-0.6935,-0.6992,-0.6983,-0.6982,-0.6986,-0.7014,-0.7015,-0.7016,-0.7001,-0.7001,-0.7,0,0,-0.6365,-0.6404,-0.6439,-0.6477,-0.6536,-0.6572,-0.658,-0.6646,-0.667,-0.6722,-0.6755,-0.6792,-0.6869,-0.6908,-0.6938,-0.696,-0.6983,-0.6973,-0.6968,-0.6994,-0.6995,-0.6996,-0.7004,-0.7007,-0.6976,-0.6976,-0.6976,0,-0.6347,-0.6409,-0.6454,-0.6494,-0.6526,-0.6566,-0.6601,-0.6637,-0.6707,-0.6728,-0.6733,-0.683,-0.6871,-0.693,-0.6935,-0.6958,-0.6969,-0.6966,-0.6991,-0.6993,-0.6995,-0.7003,-0.7006,-0.6974,-0.6975,-0.6975,-0.6975,0,-0.6386,-0.6428,-0.6449,-0.6516,-0.655,-0.6587,-0.6638,-0.6667,-0.6693,-0.6729,-0.6781,-0.6832,-0.6888,-0.6904,-0.693,-0.6967,-0.6968,-0.6981,-0.6989,-0.6994,-0.7003,-0.7006,-0.6972,-0.6973,-0.6973,-0.6974,0,0,-0.6368,-0.6459,-0.6466,-0.6497,-0.6564,-0.6599,-0.6638,-0.6693,-0.6717,-0.6765,-0.68,-0.6864,-0.6877,-0.6911,-0.6942,-0.6964,-0.6979,-0.6975,-0.6978,-0.6975,-0.7023,-0.7013,-0.7016,-0.6995,-0.6996,-0.6996,-0.7019,0,-0.6384,-0.6456,-0.6498,-0.6554,-0.6594,-0.6633,-0.6668,-0.6713,-0.6748,-0.6788,-0.6827,-0.6871,-0.6885,-0.6906,-0.693,-0.6972,-0.699,-0.6971,-0.7028,-0.703,-0.7013,-0.7021,-0.701,-0.7029,-0.7022,-0.7023,-0.7024,0,-0.6412,-0.6458,-0.6518,-0.6581,-0.66,-0.663,-0.6684,-0.6722,-0.6774,-0.6798,-0.6836,-0.6867,-0.6911,-0.6916,-0.6978,-0.6964,-0.699,-0.7014,-0.7016,-0.7023,-0.7027,-0.7028,-0.7036,-0.7038,-0.7029,-0.7029,-0.7028,0,-0.6393,-0.647,-0.6516,-0.6542,-0.6617,-0.6638,-0.667,-0.6722,-0.6753,-0.6801,-0.6821,-0.6873,-0.6901,-0.6941,-0.6985,-0.6985,-0.7043,-0.7051,-0.7065,-0.7064,-0.7075,-0.7074,-0.7087,-0.7092,-0.7092,-0.7091,-0.7091,0,-0.6407,-0.6442,-0.6509,-0.6537,-0.6578,-0.6626,-0.6665,-0.67,-0.6747,-0.6783,-0.682,-0.6853,-0.691,-0.695,-0.6985,-0.7031,-0.7044,-0.7065,-0.7074,-0.7062,-0.7059,-0.7079,-0.7079,-0.7092,-0.7092,-0.7092,-0.7092,0,-0.6393,-0.6439,-0.6492,-0.6559,-0.6576,-0.6603,-0.6661,-0.669,-0.6727,-0.6773,-0.6786,-0.6844,-0.6894,-0.6942,-0.7008,-0.7032,-0.7078,-0.709,-0.706,-0.7065,-0.7076,-0.7074,-0.7103,-0.7109,-0.7108,-0.7108,-0.7108,0,-0.6398,-0.6426,-0.6496,-0.6523,-0.6554,-0.6597,-0.6629,-0.6677,-0.6708,-0.677,-0.6792,-0.6845,-0.6889,-0.6967,-0.7015,-0.7066,-0.708,-0.7086,-0.7088,-0.7075,-0.708,-0.7078,-0.7082,-0.7085,-0.7085,-0.7085,-0.7084,0,-0.6403,-0.6425,-0.6469,-0.6521,-0.6557,-0.66,-0.6645,-0.6665,-0.6722,-0.6755,-0.6806,-0.6841,-0.6909,-0.696,-0.7017,-0.7052,-0.7078,-0.7084,-0.709,-0.7078,-0.7059,-0.707,-0.7057,-0.7083,-0.7083,-0.7083,-0.7083,-0.7083,-0.64,-0.6427,-0.648,-0.6528,-0.6566,-0.6607,-0.6638,-0.6679,-0.6722,-0.6781,-0.6807,-0.6859,-0.6912,-0.6991,-0.7024,-0.7066,-0.7072,-0.7081,-0.7083,-0.7084,-0.7082,-0.7052,-0.7077,-0.7077,-0.7077,-0.7077,-0.7077,0,-0.6408,-0.6444,-0.6487,-0.6548,-0.6586,-0.6607,-0.6657,-0.6688,-0.6732,-0.6779,-0.6822,-0.6881,-0.6932,-0.6984,-0.7038,-0.7061,-0.7074,-0.7073,-0.7072,-0.708,-0.7073,-0.7063,-0.7062,-0.7062,-0.7062,-0.7062,-0.7062,-0.7062,-0.6416,-0.6463,-0.6491,-0.6557,-0.6593,-0.6644,-0.6671,-0.6709,-0.6747,-0.6811,-0.6853,-0.6887,-0.6936,-0.6994,-0.7041,-0.7056,-0.7074,-0.7069,-0.7087,-0.7079,-0.708,-0.7081,-0.7072,-0.7073,-0.7073,-0.7091,-0.7091,-0.7091]},{"header":{"parameterUnit":"m.s-1","parameterCategory":1,"la1":30.2991,"la2":30.254,"lo1":-89.0895,"lo2":-89.0444,"dy":0.0017,"dx":0.0017,"nx":28,"ny":28,"refTime":"2023-10-08T09:00:00:Z","depth":0,"parameterNumber":3,"parameterNumberName":"V-component_of_WINDS"},"data":[0,0,0,0,0,0,0,0,0,0,0,0,0,0,0,0,0,0,0,0,0,0,0,0,0,0,0,0,0,0,0,0,0,0,0,0,0,0,0,0,0,0,0,0,0,0,0,0,0,0,0,0,0,0,0,0,0,0,0.1077,0.1076,0,0.1053,0.1052,0.1052,0.1062,0.1062,0.1063,0.1063,0.1034,0.1033,0.1032,0,0,0,0,0,0,0,0,0,0,0,0,0,0.1127,0.1126,0.1077,0.1076,0.1076,0.1053,0.1052,0.1052,0.1061,0.1062,0.1063,0.1064,0.1035,0.1033,0.1032,0,0,0,0,0,0,0,0,0,0,0,0,0,0.1104,0.1126,0.1077,0.1078,0.1078,0.1053,0.1052,0.1052,0.1061,0.1062,0.1063,0.1064,0.1035,0.1034,0.1032,0.1002,0,0,0.1026,0.1025,0,0,0,0,0,0,0,0,0.1105,0.1102,0.1078,0.1078,0.1078,0.1061,0.106,0.1035,0.1061,0.1067,0.1063,0.1064,0.1042,0.104,0.1033,0.1001,0.1,0.1025,0.1024,0.1023,0.1023,0,0,0,0,0,0,0,0.1107,0.1103,0.1067,0.1078,0.1077,0.1079,0.1076,0.1055,0.105,0.1067,0.1068,0.1065,0.1042,0.1035,0.1033,0.0999,0.1026,0.1024,0.1023,0.1022,0.0942,0.0941,0,0,0,0,0,0,0.1109,0.1105,0.1068,0.1066,0.1094,0.1077,0.1075,0.1065,0.1051,0.1049,0.1064,0.1065,0.1038,0.1035,0.1032,0.0997,0.1023,0.1022,0.102,0.0943,0.0942,0.0941,0,0,0,0,0,0,0.111,0.1106,0.1069,0.1086,0.1081,0.1075,0.1065,0.1065,0.1057,0.1049,0.1047,0.1058,0.1039,0.1035,0.101,0.0996,0.1021,0.1019,0.0944,0.0943,0.0941,0.0927,0,0,0,0,0,0,0.1112,0.1106,0.1096,0.1085,0.108,0.1048,0.1064,0.1063,0.1055,0.1056,0.1042,0.1041,0.1039,0.1013,0.1008,0.0994,0.1017,0.0945,0.0943,0.0942,0.0928,0.0925,0.0922,0,0,0,0,0,0.1113,0.1091,0.1095,0.1091,0.1067,0.1048,0.1044,0.1044,0.1053,0.1042,0.1037,0.1041,0.0998,0.101,0.1005,0.099,0.0946,0.0944,0.0942,0.093,0.0925,0.0922,0,0,0,0,0,0,0.1099,0.109,0.1094,0.1068,0.1059,0.1049,0.1035,0.1039,0.1026,0.1027,0.1026,0.1023,0.0998,0.0991,0.1005,0.0961,0.0973,0.097,0.0966,0.0962,0.0959,0.0961,0.1016,0,0,0,0,0,0.1093,0.1079,0.1071,0.1049,0.1045,0.1041,0.1032,0.1033,0.1022,0.1018,0.101,0.0999,0.0983,0.0972,0.0957,0.0927,0.0924,0.0914,0.0911,0.0909,0.0906,0.089,0.0885,0.0934,0.0934,0.0934,0,0,0.108,0.1073,0.1064,0.1046,0.1039,0.1024,0.1037,0.102,0.1008,0.1015,0.0992,0.0986,0.0972,0.0946,0.0933,0.0939,0.0892,0.0906,0.0904,0.0902,0.0887,0.0883,0.0879,0.0932,0.0932,0.0933,0,0,0.1048,0.1042,0.1024,0.1016,0.1006,0.1003,0.0999,0.0989,0.0986,0.0963,0.0967,0.0953,0.0925,0.0916,0.0907,0.0873,0.0877,0.0868,0.0851,0.0836,0.0832,0.0829,0.0816,0.0812,0.0865,0.0865,0.0865,0,0.1033,0.1011,0.1013,0.0996,0.0988,0.0995,0.0975,0.0968,0.0952,0.0945,0.0953,0.0919,0.091,0.0882,0.0874,0.0866,0.0861,0.087,0.0833,0.0829,0.0826,0.0815,0.081,0.0864,0.0864,0.0864,0.0865,0,0.0993,0.0978,0.0964,0.0951,0.0941,0.0922,0.092,0.091,0.0912,0.0908,0.0885,0.0875,0.0858,0.0851,0.0852,0.0823,0.0827,0.0833,0.0846,0.0821,0.081,0.0805,0.0863,0.0863,0.0863,0.0864,0,0,0.0951,0.094,0.0935,0.0929,0.0918,0.0906,0.0887,0.0872,0.0864,0.0852,0.0837,0.0814,0.082,0.081,0.081,0.0797,0.077,0.0805,0.0804,0.0799,0.0737,0.0733,0.0727,0.0773,0.0772,0.0771,0.0739,0,0.0919,0.0889,0.089,0.0862,0.0848,0.0854,0.0838,0.0829,0.0826,0.0812,0.0807,0.0791,0.0801,0.0795,0.0782,0.0776,0.0758,0.0779,0.0757,0.0757,0.0761,0.0722,0.0716,0.0686,0.0734,0.0733,0.0733,0,0.0877,0.0867,0.0837,0.0829,0.0823,0.0809,0.0796,0.0783,0.0773,0.0771,0.0761,0.0763,0.0744,0.0757,0.073,0.0744,0.0735,0.0731,0.073,0.0728,0.0743,0.0718,0.0676,0.0671,0.0726,0.0727,0.0727,0,0.085,0.0828,0.0808,0.0803,0.0793,0.0783,0.0778,0.0768,0.0759,0.0747,0.0741,0.0726,0.0718,0.0706,0.0704,0.0714,0.0676,0.069,0.0674,0.0674,0.0665,0.0666,0.0621,0.066,0.066,0.066,0.066,0,0.0814,0.0796,0.0796,0.0783,0.0763,0.0764,0.0743,0.0739,0.0731,0.0717,0.0721,0.0707,0.0705,0.069,0.0688,0.0666,0.0662,0.0659,0.0659,0.0659,0.0659,0.0653,0.0655,0.0659,0.0659,0.0659,0.0659,0,0.078,0.0779,0.0758,0.075,0.0748,0.0733,0.0726,0.0714,0.0711,0.0693,0.0689,0.0684,0.0668,0.0664,0.0644,0.0643,0.0616,0.0618,0.062,0.062,0.0605,0.0606,0.0554,0.0547,0.059,0.059,0.059,0,0.0757,0.0743,0.0735,0.0727,0.0722,0.0708,0.07,0.07,0.0691,0.0679,0.0667,0.0652,0.0639,0.0612,0.0606,0.059,0.0591,0.0574,0.0589,0.0589,0.0591,0.0592,0.059,0.0571,0.0571,0.057,0.057,0,0.0716,0.0717,0.0705,0.0694,0.0684,0.0674,0.0665,0.0657,0.0657,0.0646,0.063,0.062,0.06,0.0584,0.0569,0.0562,0.0566,0.0566,0.0561,0.0561,0.0563,0.0562,0.0612,0.0567,0.0567,0.0567,0.0567,0.0567,0.0687,0.0675,0.0668,0.0655,0.0649,0.064,0.0629,0.0625,0.0612,0.0597,0.0598,0.058,0.057,0.055,0.0543,0.0528,0.0533,0.0527,0.0525,0.0523,0.0522,0.0565,0.0525,0.0525,0.0525,0.0525,0.0526,0,0.0647,0.0643,0.0631,0.0619,0.0608,0.0614,0.0604,0.0595,0.058,0.0571,0.0559,0.054,0.0525,0.0518,0.0503,0.0492,0.0493,0.0488,0.0489,0.0487,0.0518,0.0524,0.0487,0.0487,0.0487,0.0487,0.0488,0.0488,0.0625,0.0606,0.0605,0.0583,0.0578,0.0563,0.0556,0.0548,0.0541,0.0521,0.0509,0.0505,0.0497,0.0481,0.0467,0.0465,0.0459,0.0453,0.0452,0.0481,0.0485,0.0488,0.0494,0.0452,0.0452,0.0422,0.0422,0.0421]}]]